Temperature
19 19 19 19 18 18 18 18 18 18 18 18 18 17 17 17 17 17 17 17 16 16 16 16 16 16 16 16 16 16 16 16 15 15 14 14 14 14 14 14 14 14 14
19 19 19 19 19 18 18 18 18 18 18 18 17 17 17 17 17 17 17 16 16 16 16 16 16 16 16 16 16 16 16 15 15 15 14 14 14 14 14 13 13 13 13
19 19 19 19 18 18 18 18 18 18 18 17 17 17 17 17 17 17 16 16 16 16 16 16 16 16 16 16 15 15 15 15 15 14 14 13 13 13 13 13 13 13 13
20 19 19 19 18 18 18 18 18 18 17 17 17 17 17 17 17 17 16 16 16 16 15 15 15 15 15 15 15 15 15 15 14 14 14 13 13 13 13 13 12 12 12
19 19 19 19 18 18 18 18 18 17 17 17 17 17 17 17 16 16 16 16 15 15 15 15 15 15 15 15 14 14 14 14 14 13 13 13 13 12 12 12 12 12 12
19 19 19 18 18 18 18 18 18 17 17 17 17 16 16 16 16 16 16 15 15 15 15 15 14 14 14 14 14 14 14 14 13 13 13 13 12 12 12 12 12 12 11
19 19 19 18 18 18 17 17 17 17 17 17 16 16 16 16 16 16 15 15 15 15 14 14 14 14 14 14 14 14 13 13 13 13 13 12 12 12 12 12 12 12 12
19 19 18 18 18 18 17 17 17 17 16 16 16 16 16 16 16 16 15 15 14 14 14 14 14 13 13 13 13 13 13 13 13 12 12 12 12 12 12 12 12 11 11
19 18 18 18 18 17 17 17 17 16 16 15 15 15 15 15 15 15 15 14 14 14 14 13 13 13 13 13 13 13 13 12 12 12 12 12 12 12 11 11 11 11 11
18 18 18 18 17 17 17 17 16 16 15 15 15 15 15 15 15 15 14 14 14 13 13 13 13 13 13 12 12 12 12 12 12 12 11 11 11 11 11 11 11 11 11
18 18 17 17 17 17 16 16 16 15 15 15 15 15 15 15 14 14 14 14 13 13 13 13 13 12 12 12 12 12 11 11 11 11 11 11 11 11 10 10 10 10 10
18 17 17 17 16 16 16 16 15 15 15 15 14 14 14 14 14 14 14 13 13 13 12 12 12 12 12 12 11 11 11 11 11 10 10 10 10 10 10 10 10 10 10
17 17 16 16 16 15 15 15 15 15 14 14 14 14 14 14 13 13 13 13 12 12 12 12 12 11 11 11 11 11 11 10 10 10 10 10 10 10 10 10 10 10 10
17 17 16 16 16 15 15 15 15 14 14 14 14 14 13 13 13 13 13 12 12 12 11 11 11 11 11 11 11 10 10 10 10 10 10 10 9 9 9 9 9 9 9
16 16 16 15 15 15 15 15 14 14 14 14 14 13 13 13 13 13 12 12 12 11 11 11 11 11 10 10 10 10 10 9 9 9 9 9 9 9 9 9 9 9 9
16 16 15 15 15 15 14 14 14 14 13 13 13 13 13 12 12 12 12 12 11 11 11 10 10 10 10 10 10 9 9 9 9 9 9 9 9 9 9 9 9 8 8
16 15 15 15 15 14 14 14 14 13 13 13 13 13 12 12 12 12 11 11 11 11 10 10 10 10 10 9 9 9 9 9 9 9 9 8 9 9 9 9 8 8 8
15 15 15 14 14 14 14 14 13 13 13 13 12 12 12 12 12 11 11 11 10 10 10 10 9 9 9 9 9 9 9 9 9 8 8 8 8 8 8 8 8 8 8
14 14 14 14 14 14 14 13 13 13 13 13 12 12 12 12 11 11 11 10 10 10 10 10 9 9 9 9 9 9 9 9 8 8 8 8 8 8 8 8 8 8 8
14 14 14 14 14 13 13 13 13 13 12 12 12 12 12 11 11 11 10 10 10 10 9 9 9 9 9 9 9 8 8 8 8 8 8 8 8 8 8 8 8 8 8
13 13 13 13 13 13 13 13 13 12 12 12 12 11 11 11 11 11 10 10 10 9 9 9 9 9 9 9 8 8 8 8 8 8 8 7 7 7 7 7 7 7 7
13 13 13 13 13 13 13 12 12 12 12 11 11 11 11 11 10 10 10 10 9 9 9 9 8 8 8 8 8 8 8 7 7 7 7 7 7 7 7 7 7 7 7
12 13 12 12 12 12 12 12 12 12 11 11 11 11 11 10 10 10 9 9 9 9 9 8 8 8 8 8 8 7 7 7 7 7 7 7 7 7 7 7 7 7 7
12 12 12 12 12 12 12 11 11 11 11 11 11 10 10 10 9 9 9 9 9 8 8 8 8 8 8 8 7 7 7 7 7 6 6 6 6 6 6 6 6 6 6
12 12 12 11 11 11 11 11 11 11 10 10 10 10 9 9 9 9 9 9 8 8 8 8 7 7 7 7 7 7 7 6 6 6 6 6 6 6 6 6 6 6 6
11 11 11 11 11 11 10 10 10 10 10 10 9 9 9 9 9 8 8 8 8 8 7 7 7 7 7 6 6 6 6 6 6 6 6 5 5 5 5 5 5 5 5
Wind_Speed
7 6 5 5 5 4 3 2 1 0 0 1 1 2 2 2 2 2 2 2 2 2 2 2 1 2 2 2 2 1 1 1 2 1 0 1 1 2 4 4 3 4 4
7 6 5 4 4 4 4 3 2 1 0 1 1 2 1 1 1 1 2 2 1 1 1 1 1 1 1 2 2 1 1 1 2 2 1 1 0 1 2 2 3 3 5
8 7 6 5 5 4 3 3 2 2 1 0 0 0 0 0 0 0 1 1 0 0 0 1 1 1 1 1 1 1 1 1 2 2 2 1 1 1 1 1 2 3 3
8 8 7 6 5 4 4 3 2 2 2 1 1 1 1 1 1 0 0 1 0 0 1 1 1 2 1 1 1 1 1 0 1 2 2 1 1 2 1 1 1 1 1
7 7 6 6 5 4 4 3 3 3 3 2 2 1 1 2 1 1 0 0 0 0 1 2 2 2 3 2 1 1 1 0 1 2 2 1 1 1 1 2 1 1 1
7 7 7 6 5 4 4 3 3 3 2 2 2 2 1 2 4 5 2 1 1 1 1 1 1 2 2 2 3 3 2 1 1 2 2 2 2 2 1 2 2 2 1
7 7 7 6 6 5 4 4 3 3 3 2 2 2 3 4 5 5 4 2 1 1 1 1 1 2 2 2 2 1 2 2 1 2 2 2 2 2 2 2 2 2 2
7 7 6 6 6 5 4 3 3 2 2 3 3 3 3 3 4 4 4 1 1 1 1 1 1 2 3 2 1 2 2 2 1 0 0 1 1 1 3 4 4 3 2
7 7 6 6 5 5 4 3 3 3 2 3 3 3 3 3 4 4 3 1 2 2 2 3 3 3 4 4 2 1 2 2 3 3 2 2 2 2 1 1 2 2 2
7 6 5 5 5 4 4 3 3 3 2 3 3 3 3 3 4 4 3 1 1 1 2 4 6 5 5 4 2 1 1 2 2 1 1 1 2 2 2 1 1 2 1
7 6 6 5 4 4 3 3 4 3 3 3 3 3 3 4 4 3 3 2 1 0 1 2 3 5 4 4 3 2 1 2 2 1 0 1 0 0 0 1 0 1 1
7 7 6 5 4 5 4 3 3 3 3 3 3 2 3 4 4 3 2 1 2 1 1 2 3 3 2 2 3 3 3 2 1 1 0 1 1 1 1 1 1 2 0
7 6 6 5 3 3 4 3 3 3 3 2 2 2 2 3 3 3 2 1 2 1 2 4 4 2 0 0 1 2 2 2 2 1 1 1 0 0 0 0 0 1 0
7 6 5 4 4 3 2 2 2 1 1 2 2 1 2 2 2 1 1 1 2 2 2 2 3 2 1 1 1 1 1 2 2 1 1 1 0 0 0 0 1 1 1
6 6 6 4 4 4 3 2 2 2 1 1 1 1 1 2 2 3 3 2 1 1 2 1 1 1 0 1 1 1 1 1 1 1 1 1 1 0 1 1 1 1 1
4 4 4 4 4 5 4 3 6 4 5 6 4 2 3 3 4 4 3 2 2 2 2 1 1 1 1 1 1 1 1 1 1 1 1 1 1 1 1 1 1 1 1
3 2 2 3 4 4 4 4 3 3 3 3 2 2 3 3 3 3 3 2 2 3 2 1 1 1 1 1 1 1 1 1 1 1 1 2 2 2 2 1 1 1 2
3 3 3 3 3 3 3 4 4 4 4 3 2 3 4 4 3 2 3 2 1 1 2 2 2 2 1 1 1 1 1 1 1 1 2 2 2 2 2 2 2 2 2
2 2 2 2 2 2 2 2 2 2 2 3 3 3 4 4 4 3 3 2 2 2 2 2 2 2 1 1 1 1 1 1 1 1 2 2 2 2 2 2 2 2 2
2 2 2 2 2 2 2 2 3 3 2 2 2 2 2 3 3 3 3 3 2 2 2 2 2 2 1 0 0 1 1 1 1 2 2 2 2 2 3 3 3 2 2
1 2 2 2 1 1 1 2 2 1 2 2 2 3 5 4 3 4 4 4 3 3 3 2 2 1 1 0 0 1 1 1 1 2 2 2 3 2 3 3 3 3 2
1 1 2 2 1 0 1 1 1 1 2 1 1 3 6 4 3 3 3 3 3 3 2 2 1 1 1 1 0 1 2 2 2 3 3 3 2 3 3 3 3 2 2
1 1 1 1 1 1 1 1 1 1 1 1 1 2 3 3 2 2 2 3 3 3 3 2 2 1 1 1 1 1 1 2 3 3 3 3 3 3 3 3 3 3 3
0 0 1 1 1 1 1 1 2 1 1 1 1 1 2 2 2 1 1 1 1 1 2 1 1 0 1 2 2 2 3 3 3 4 4 4 4 3 3 3 4 4 3
0 1 0 0 1 1 1 1 1 1 0 0 0 1 1 1 1 1 1 0 0 0 0 1 1 1 2 3 3 3 4 4 4 5 5 4 4 4 4 5 4 4 4
0 0 0 0 0 0 0 0 0 0 0 0 0 0 0 1 1 1 1 1 1 1 1 2 3 3 4 3 2 2 3 4 5 6 5 5 5 4 4 4 5 5 5
Wind_Direction
171 168 169 167 170 169 172 171 168 141 181 190 230 243 238 243 239 237 245 252 247 267 276 280 303 313 319 309 285 268 233 197 215 247 99 102 93 102 108 109 111 114 122
164 158 158 155 156 163 161 148 143 159 202 223 228 246 253 252 256 271 284 274 240 266 303 336 321 313 316 319 319 308 242 210 183 190 199 223 205 158 148 148 123 114 114
158 157 153 157 157 157 151 145 148 146 161 258 188 189 216 213 162 37 274 287 288 273 299 319 327 340 330 344 325 311 293 227 165 170 199 204 210 202 183 166 124 126 123
152 155 153 158 154 153 146 140 139 143 151 116 81 99 111 93 61 51 352 310 24 43 47 42 43 37 360 332 302 306 315 307 154 150 171 189 217 221 199 189 181 221 201
150 153 151 150 146 142 140 144 142 149 152 134 119 98 87 79 47 31 357 21 27 50 68 70 68 66 54 29 357 4 350 266 178 167 182 188 201 205 217 224 203 224 270
156 154 147 151 149 146 147 138 132 131 126 124 127 107 82 63 53 45 21 5 70 82 63 66 104 107 78 62 57 38 15 279 216 198 209 205 226 225 217 215 206 217 227
154 148 150 152 149 153 155 146 148 144 142 139 126 104 88 74 61 49 28 10 37 104 101 62 33 57 81 61 51 27 8 20 174 219 215 213 223 220 224 228 230 229 235
156 155 153 153 147 143 141 144 146 137 141 142 132 123 110 87 66 51 23 29 39 64 74 82 69 61 45 30 37 43 33 23 356 237 151 253 219 223 235 225 223 231 242
163 159 157 154 148 147 149 152 150 144 145 144 142 134 120 97 69 51 27 79 71 65 62 60 68 68 43 39 55 43 43 47 63 87 121 149 161 174 209 243 226 223 238
156 151 145 146 149 152 148 152 154 158 160 150 145 142 137 115 91 64 34 63 82 77 85 85 71 59 48 32 47 44 45 27 15 31 87 141 164 179 198 248 256 249 236
139 136 138 135 135 137 143 153 158 163 163 158 150 141 134 120 109 76 42 27 19 53 83 84 74 63 50 32 31 35 18 331 313 310 200 150 114 37 51 35 30 276 281
132 135 135 136 150 146 143 150 155 169 174 164 154 149 127 122 113 103 78 57 0 18 64 75 92 83 51 29 38 24 359 335 292 288 58 80 58 29 352 355 89 82 161
135 138 138 131 121 133 144 150 160 175 181 169 164 160 143 131 118 109 113 95 42 34 76 101 123 138 94 34 42 342 333 309 308 333 28 33 55 206 235 235 167 169 228
138 137 136 138 140 137 139 152 165 181 180 172 169 169 152 132 117 117 137 125 109 96 96 117 143 181 271 342 356 306 279 312 334 6 11 339 290 204 230 260 262 241 227
141 146 147 152 146 132 120 83 103 72 100 141 127 127 140 145 174 177 176 189 203 188 162 165 163 167 231 243 247 241 246 318 319 344 330 301 281 266 283 279 267 263 245
154 159 157 156 157 153 143 120 69 87 88 88 77 84 96 106 142 151 149 143 158 164 173 181 195 215 226 245 245 239 230 267 284 266 254 263 260 255 261 278 285 284 286
152 163 165 159 162 164 165 164 158 123 97 81 87 98 121 135 142 147 143 133 164 163 191 224 238 239 253 263 255 252 239 230 255 265 265 273 272 268 259 254 252 268 274
165 173 186 184 184 178 180 189 190 178 172 176 183 188 177 171 168 158 136 122 124 174 229 257 268 269 253 256 274 281 278 229 233 268 272 271 271 273 272 259 249 254 265
175 182 186 197 201 183 187 194 189 189 183 166 153 157 189 183 173 186 177 212 216 208 235 260 268 277 265 232 237 247 258 264 264 263 270 281 285 285 286 281 275 267 257
166 186 210 215 212 192 192 201 205 201 197 176 167 149 149 162 165 172 194 229 243 246 243 245 252 270 283 264 232 253 273 290 297 287 297 299 291 294 296 294 289 280 262
187 183 208 224 217 200 206 223 220 218 230 212 183 157 161 187 198 188 192 214 229 242 255 265 254 256 295 308 330 311 313 324 317 302 293 286 287 292 299 302 305 303 300
190 196 208 207 176 123 246 241 246 245 246 237 193 164 173 197 202 185 196 213 222 228 237 254 268 269 290 298 3 348 335 329 322 314 302 299 299 293 295 295 294 292 295
200 190 184 145 131 183 233 256 260 257 254 243 210 165 172 205 220 221 216 215 203 212 224 230 236 270 314 1 33 47 4 336 321 313 311 304 298 296 294 292 294 295 291
281 205 147 157 189 222 231 252 256 253 262 264 227 205 179 193 219 232 242 222 194 216 231 229 196 38 51 30 10 21 22 351 325 309 310 302 299 303 301 294 292 295 291
202 118 155 197 210 228 224 244 270 259 226 271 243 234 184 194 228 230 259 296 190 232 112 105 94 51 48 42 27 25 20 8 355 337 316 304 305 306 310 311 309 301 295
74 49 337 359 285 157 134 117 82 298 230 229 245 56 49 63 44 22 25 20 6 45 71 76 76 73 60 45 28 31 25 6 349 336 319 301 301 304 310 303 307 303 297
Height
1534 1535 1537 1538 1539 1541 1542 1543 1544 1545 1546 1546 1546 1546 1546 1546 1545 1545 1545 1545 1545 1545 1545 1545 1545 1545 1545 1545 1546 1546 1546 1547 1546 1547 1547 1548 1548 1547 1547 1547 1546 1546 1545
1532 1534 1536 1537 1538 1539 1540 1542 1543 1543 1544 1544 1543 1544 1543 1543 1543 1542 1542 1542 1542 1542 1542 1542 1542 1542 1542 1542 1543 1543 1543 1543 1543 1543 1544 1544 1544 1545 1545 1544 1544 1543 1543
1531 1533 1534 1536 1537 1538 1539 1540 1541 1541 1542 1542 1541 1541 1541 1541 1541 1540 1540 1540 1539 1539 1540 1540 1540 1540 1539 1540 1540 1540 1540 1541 1541 1540 1540 1541 1541 1542 1542 1542 1541 1541 1541
1530 1532 1533 1534 1536 1537 1537 1538 1539 1540 1540 1540 1540 1539 1539 1539 1539 1538 1538 1537 1537 1537 1537 1538 1537 1537 1537 1537 1537 1537 1537 1538 1538 1538 1538 1538 1539 1539 1539 1539 1539 1539 1539
1529 1531 1532 1533 1534 1535 1536 1537 1537 1538 1538 1538 1538 1538 1538 1537 1537 1536 1536 1535 1535 1535 1535 1535 1535 1535 1535 1535 1535 1535 1535 1535 1535 1535 1535 1536 1536 1536 1536 1536 1536 1536 1536
1529 1530 1531 1533 1533 1534 1535 1536 1536 1536 1536 1536 1536 1536 1536 1536 1535 1535 1534 1534 1533 1533 1533 1533 1533 1533 1533 1533 1533 1533 1533 1533 1533 1533 1533 1533 1533 1533 1534 1534 1534 1533 1533
1528 1529 1530 1531 1532 1533 1534 1534 1534 1534 1535 1535 1535 1535 1535 1534 1534 1534 1533 1533 1532 1532 1532 1532 1532 1531 1531 1531 1531 1531 1531 1531 1531 1531 1531 1531 1531 1531 1531 1531 1531 1531 1530
1526 1527 1528 1530 1530 1531 1532 1532 1533 1533 1533 1533 1533 1533 1533 1533 1533 1533 1532 1532 1531 1531 1531 1530 1530 1530 1529 1529 1529 1529 1529 1529 1529 1529 1529 1529 1528 1529 1528 1528 1528 1528 1528
1525 1525 1527 1528 1528 1529 1530 1530 1530 1531 1531 1532 1532 1532 1532 1532 1532 1531 1531 1531 1530 1530 1530 1529 1529 1529 1528 1528 1528 1527 1527 1527 1527 1527 1527 1527 1526 1526 1526 1526 1526 1526 1525
1523 1524 1525 1526 1527 1527 1527 1528 1529 1529 1529 1530 1530 1531 1531 1530 1530 1530 1530 1530 1529 1529 1529 1528 1528 1528 1527 1527 1527 1526 1526 1526 1525 1525 1525 1525 1524 1524 1523 1523 1523 1523 1522
1521 1522 1524 1524 1525 1525 1526 1526 1527 1527 1528 1528 1529 1529 1529 1529 1529 1529 1529 1529 1529 1528 1528 1528 1527 1527 1526 1526 1526 1525 1525 1525 1524 1524 1523 1523 1522 1522 1521 1521 1521 1521 1521
1520 1521 1522 1523 1524 1524 1524 1524 1525 1526 1526 1527 1527 1527 1528 1528 1528 1528 1528 1528 1528 1527 1527 1527 1527 1526 1526 1525 1525 1524 1524 1524 1523 1523 1522 1522 1521 1520 1520 1520 1519 1519 1518
1519 1520 1520 1521 1522 1523 1523 1523 1524 1525 1525 1525 1526 1526 1527 1527 1526 1526 1526 1527 1527 1526 1526 1526 1526 1526 1525 1525 1524 1524 1523 1523 1522 1522 1521 1521 1520 1519 1519 1518 1517 1517 1516
1517 1518 1519 1520 1520 1521 1522 1523 1523 1524 1524 1524 1525 1525 1525 1525 1525 1524 1524 1525 1525 1525 1525 1525 1525 1525 1524 1523 1523 1523 1522 1522 1521 1521 1520 1520 1519 1518 1517 1516 1516 1515 1514
1516 1517 1518 1519 1519 1520 1521 1522 1522 1523 1523 1524 1524 1524 1524 1523 1523 1523 1523 1523 1523 1523 1523 1523 1523 1523 1522 1522 1521 1521 1521 1520 1520 1519 1519 1518 1517 1517 1516 1515 1515 1514 1513
1516 1516 1517 1517 1518 1519 1520 1521 1521 1522 1522 1523 1523 1523 1522 1523 1522 1522 1522 1522 1522 1522 1522 1521 1521 1521 1521 1520 1520 1520 1520 1519 1519 1518 1517 1517 1516 1515 1514 1514 1513 1513 1512
1514 1515 1515 1516 1517 1518 1518 1519 1519 1520 1521 1521 1521 1522 1521 1521 1521 1521 1521 1521 1521 1521 1520 1520 1520 1520 1520 1519 1519 1519 1518 1517 1517 1517 1516 1515 1515 1514 1513 1512 1512 1511 1510
1512 1513 1514 1515 1516 1517 1517 1518 1518 1518 1518 1519 1520 1520 1520 1520 1520 1519 1519 1519 1519 1519 1519 1519 1519 1518 1518 1518 1517 1517 1517 1516 1515 1515 1514 1514 1513 1512 1512 1511 1510 1509 1508
1510 1511 1512 1514 1515 1515 1516 1517 1517 1517 1517 1517 1517 1518 1518 1518 1518 1518 1517 1517 1517 1517 1517 1517 1517 1516 1516 1516 1516 1515 1515 1514 1513 1513 1512 1512 1511 1511 1510 1509 1508 1507 1506
1508 1510 1511 1512 1513 1514 1514 1515 1515 1515 1515 1515 1515 1515 1515 1515 1515 1515 1515 1515 1515 1515 1515 1515 1514 1514 1514 1514 1513 1513 1513 1512 1511 1511 1510 1510 1509 1509 1508 1507 1506 1505 1504
1507 1508 1509 1510 1511 1512 1512 1513 1514 1514 1514 1514 1513 1513 1513 1513 1513 1513 1513 1513 1513 1513 1513 1512 1512 1512 1512 1511 1511 1511 1510 1510 1509 1509 1508 1508 1507 1506 1506 1505 1504 1503 1503
1506 1506 1507 1508 1509 1510 1510 1511 1512 1512 1512 1512 1512 1511 1510 1510 1510 1510 1510 1510 1510 1510 1510 1510 1510 1509 1509 1509 1508 1508 1508 1507 1507 1506 1506 1505 1504 1504 1503 1503 1502 1501 1500
1505 1505 1506 1506 1507 1508 1509 1509 1510 1510 1510 1510 1510 1509 1509 1509 1509 1508 1508 1508 1508 1507 1507 1507 1507 1507 1507 1506 1506 1505 1505 1504 1504 1504 1503 1502 1502 1501 1501 1500 1499 1499 1498
1504 1504 1505 1505 1505 1506 1506 1507 1507 1507 1507 1507 1507 1507 1507 1507 1507 1507 1506 1506 1506 1506 1505 1505 1505 1504 1504 1503 1503 1503 1502 1502 1501 1501 1500 1500 1499 1498 1498 1497 1497 1496 1495
1502 1503 1504 1504 1504 1504 1504 1504 1504 1505 1505 1505 1505 1505 1505 1505 1504 1504 1504 1504 1504 1504 1503 1503 1502 1502 1501 1500 1500 1500 1499 1499 1498 1498 1497 1496 1496 1495 1495 1494 1493 1493 1492
1501 1502 1502 1503 1503 1503 1503 1502 1502 1503 1503 1503 1503 1503 1503 1502 1502 1502 1502 1501 1502 1501 1501 1500 1499 1498 1498 1498 1497 1497 1496 1496 1495 1495 1494 1493 1493 1492 1491 1491 1490 1489 1488